Powrót do katalogu

STARLINK-30615

AktywnyŁącznośćVLEO
NORAD 58092·PAYLOAD·🇺🇸 United States

Wystrzelony Oct 18, 2023 z Cape Canaveral Space Force Station

Loading…

Następne Przeloty (najbliższe 24 godziny)

TLE

ŚwieżeSource: CelesTrak SupGP

Epoka: Sep 15, 2026, 02:55 UTC

1 58092C 23160T   26258.12201389 -.00025674  00000+0 -92976-3 0  2584
2 58092  43.0010  88.5722 0001772 266.5950   2.3430 15.27596561    16

Śledź STARLINK-30615 w czasie rzeczywistym z AllMySat

Download on the App Store